Temp
8 9 9 9 10 10 10 11 12 14 15 16 17 18 19 19 20 20 20 20 21 22 22 22 22 23 23 23 22 22 19 20 21 20 21 20 21 21 21 21 19 17 16 17 19
9 9 9 9 9 9 10 11 12 14 15 16 17 18 19 19 19 19 20 20 21 21 22 22 22 23 23 21 21 19 19 20 19 19 20 19 20 19 20 16 16 14 15 16 16
9 9 9 9 10 10 11 12 13 14 15 16 17 18 19 19 19 19 19 20 21 21 22 22 22 22 21 21 20 18 20 19 20 20 19 19 16 17 16 14 10 10 13 15 16
9 9 10 10 10 11 12 12 14 15 16 17 18 18 19 19 19 19 19 20 20 21 21 21 22 22 19 19 19 20 19 19 20 19 18 18 16 12 11 10 11 12 13 14 16
9 9 10 11 11 12 12 13 14 15 16 17 18 19 18 19 18 19 19 19 20 20 21 21 21 20 19 18 19 19 18 19 19 19 16 17 13 12 10 11 11 12 13 13 13
9 10 11 11 12 12 13 14 14 15 16 17 18 18 19 18 19 19 19 19 20 20 20 20 20 20 19 18 18 18 18 18 18 19 16 13 12 13 11 11 12 13 12 13 13
10 11 10 11 12 12 13 14 15 16 16 17 18 18 19 18 18 19 19 19 19 19 20 20 20 20 19 18 18 17 18 18 17 17 16 16 13 10 10 11 11 11 12 12 12
11 11 11 13 13 13 14 14 15 16 17 18 18 19 18 18 18 19 19 19 19 19 19 19 19 19 18 17 17 16 16 18 16 16 17 17 15 10 10 10 11 11 11 12 12
11 12 13 13 13 14 14 15 16 17 17 18 18 19 18 18 18 18 19 19 19 18 19 18 19 18 17 16 16 15 18 17 17 14 15 15 12 10 10 9 10 11 11 11 11
12 13 13 14 14 15 15 16 16 17 17 17 18 18 18 18 18 18 18 18 19 19 18 19 18 15 13 16 18 17 17 16 16 15 14 12 10 10 9 9 9 10 11 11 11
13 13 14 14 15 15 16 16 16 17 17 17 17 18 18 18 18 18 18 18 18 18 16 16 16 17 16 15 16 16 16 16 15 14 13 11 11 11 10 9 9 10 11 11 11
14 14 14 15 15 15 16 16 17 17 16 17 17 17 18 18 18 18 18 18 18 15 15 15 16 16 15 15 16 16 15 15 14 13 13 10 11 11 10 10 10 10 10 10 11
14 14 15 15 15 15 16 16 17 17 17 17 17 17 17 18 17 17 17 17 16 15 15 15 16 16 16 15 16 15 15 14 15 13 11 11 12 10 11 10 10 10 10 10 10
15 15 15 15 15 15 16 16 16 17 13 16 17 17 17 17 16 16 17 17 15 15 14 15 15 16 15 15 15 15 14 14 14 14 15 12 16 10 10 10 10 10 10 11 11
15 15 15 15 15 16 16 16 17 17 16 16 17 17 17 17 16 16 16 16 14 14 15 15 15 15 15 15 15 15 13 13 13 13 12 12 13 13 9 10 10 10 10 10 10
15 15 15 15 15 16 16 16 17 14 16 15 16 16 16 16 15 15 16 16 14 13 13 13 14 14 14 13 14 12 12 11 10 11 13 12 13 16 10 11 10 10 10 10 10
15 15 15 15 15 16 16 16 14 15 15 15 15 15 14 14 13 11 10 9 11 15 14 13 13 13 13 14 13 12 12 15 16 15 16 11 11 15 11 9 11 10 9 10 10
15 15 15 15 16 16 16 14 16 14 14 14 14 14 14 13 11 10 10 10 8 9 10 13 14 12 12 13 13 11 12 15 17 15 14 9 14 15 10 9 10 9 9 9 9
14 14 15 15 15 16 16 13 14 13 13 14 14 14 13 13 13 11 9 9 8 8 12 11 13 11 11 11 12 11 12 10 10 8 11 12 12 11 9 8 7 8 8 9 9
14 15 15 15 15 16 13 12 11 11 12 12 14 13 13 13 13 12 10 9 9 8 8 8 13 10 11 11 10 11 10 12 10 14 13 12 10 14 9 9 8 8 8 8 8
15 15 14 15 15 15 12 10 11 11 11 12 12 12 12 12 12 11 10 8 9 8 8 8 9 11 10 10 10 10 10 8 9 10 13 12 14 10 10 10 9 8 8 8 7
15 12 15 15 13 6 8 10 11 10 11 11 11 11 11 11 11 10 10 9 9 9 9 6 7 10 11 8 8 9 9 9 12 10 6 6 9 9 8 8 7 8 8 7 7
16 15 14 15 11 6 8 9 9 10 9 10 10 10 10 10 12 9 8 7 8 8 7 7 8 11 12 10 8 8 7 5 5 4 6 10 13 8 6 6 6 7 8 7 7
16 11 14 14 10 7 9 9 9 9 9 9 9 10 10 10 8 8 7 7 8 8 8 7 5 9 12 11 8 8 7 5 7 6 8 9 13 13 9 8 7 8 8 7 6
15 10 11 9 9 8 9 9 9 10 9 9 9 9 10 9 9 8 7 6 7 8 6 6 7 4 5 5 5 6 7 5 6 8 9 13 9 11 10 8 8 7 6 6 6
15 13 11 8 9 9 8 9 9 9 9 9 9 8 8 9 9 8 6 6 7 6 6 3 6 4 5 4 4 5 6 5 6 7 5 7 8 10 9 7 6 6 6 5 5
14 14 13 6 7 8 8 8 9 9 8 9 9 7 8 8 8 8 7 7 7 5 4 4 4 4 6 3 4 6 6 7 5 5 7 7 9 6 5 5 5 5 5 5 4
Height
1521 1522 1524 1525 1527 1528 1529 1529 1530 1532 1534 1536 1538 1540 1541 1542 1542 1543 1544 1546 1545 1546 1546 1546 1546 1546 1546 1546 1548 1548 1556 1563 1561 1562 1560 1559 1560 1559 1559 1559 1559 1562 1561 1559 1555
1520 1521 1523 1524 1525 1527 1528 1529 1530 1531 1534 1536 1538 1540 1541 1542 1543 1544 1546 1545 1545 1545 1546 1546 1546 1546 1547 1548 1549 1550 1559 1559 1558 1558 1558 1560 1560 1560 1559 1560 1561 1562 1561 1558 1556
1518 1520 1522 1523 1524 1525 1526 1527 1529 1531 1534 1536 1538 1540 1541 1542 1545 1545 1545 1545 1546 1545 1546 1546 1546 1547 1548 1549 1551 1553 1557 1557 1556 1556 1557 1560 1561 1559 1560 1566 1569 1566 1562 1558 1556
1516 1519 1520 1522 1523 1524 1525 1527 1529 1531 1534 1536 1538 1539 1541 1543 1548 1544 1546 1546 1545 1545 1546 1546 1546 1547 1550 1551 1552 1554 1555 1556 1556 1555 1556 1558 1561 1566 1565 1573 1571 1568 1565 1561 1557
1516 1517 1519 1521 1522 1523 1525 1527 1529 1532 1534 1537 1538 1540 1542 1543 1546 1547 1546 1546 1546 1546 1546 1546 1546 1548 1551 1552 1552 1554 1555 1555 1556 1555 1557 1557 1564 1567 1572 1572 1571 1569 1566 1562 1560
1515 1517 1518 1520 1520 1523 1525 1528 1530 1533 1535 1537 1538 1540 1543 1545 1546 1546 1546 1546 1545 1546 1545 1546 1547 1548 1550 1553 1553 1555 1555 1555 1556 1556 1560 1561 1567 1568 1575 1574 1572 1570 1567 1565 1563
1514 1516 1519 1518 1522 1525 1527 1529 1531 1533 1536 1537 1539 1541 1542 1545 1545 1546 1546 1546 1546 1546 1546 1546 1547 1549 1551 1553 1554 1555 1555 1555 1556 1556 1560 1559 1566 1575 1576 1575 1573 1571 1570 1568 1566
1515 1517 1515 1520 1525 1527 1528 1530 1532 1535 1537 1538 1540 1542 1543 1544 1545 1545 1546 1546 1546 1546 1546 1547 1548 1548 1551 1554 1555 1557 1558 1561 1560 1558 1557 1558 1571 1578 1577 1576 1574 1573 1572 1570 1568
1514 1514 1518 1523 1526 1528 1529 1532 1534 1536 1537 1539 1541 1542 1544 1545 1546 1545 1546 1546 1547 1547 1548 1548 1549 1550 1552 1556 1561 1562 1563 1564 1562 1561 1559 1558 1572 1577 1577 1576 1575 1574 1573 1571 1571
1514 1518 1522 1524 1526 1528 1530 1532 1534 1537 1538 1540 1541 1545 1545 1546 1545 1546 1546 1546 1546 1547 1549 1549 1549 1552 1557 1557 1566 1566 1566 1565 1566 1563 1562 1567 1574 1576 1576 1576 1575 1574 1573 1572 1572
1518 1521 1523 1525 1527 1529 1531 1533 1539 1541 1540 1540 1542 1542 1543 1546 1546 1546 1546 1546 1546 1547 1550 1550 1554 1557 1556 1557 1558 1561 1565 1567 1565 1564 1566 1570 1572 1573 1575 1575 1575 1574 1573 1573 1572
1521 1523 1525 1526 1528 1530 1532 1533 1535 1538 1541 1541 1542 1543 1544 1545 1546 1546 1546 1546 1546 1550 1550 1554 1557 1555 1555 1556 1558 1561 1565 1566 1565 1565 1565 1571 1570 1571 1572 1572 1572 1572 1572 1572 1571
1521 1523 1525 1527 1529 1532 1533 1534 1535 1536 1539 1543 1543 1543 1545 1547 1546 1547 1546 1546 1548 1550 1553 1555 1554 1553 1554 1558 1559 1561 1563 1565 1564 1566 1569 1571 1567 1568 1569 1570 1570 1570 1570 1570 1569
1522 1524 1527 1529 1534 1533 1534 1535 1536 1537 1547 1547 1545 1545 1546 1545 1548 1547 1547 1548 1549 1552 1552 1554 1553 1553 1555 1558 1559 1563 1560 1561 1563 1566 1566 1570 1558 1565 1565 1567 1568 1567 1567 1567 1566
1523 1525 1528 1531 1532 1533 1535 1536 1537 1538 1560 1548 1545 1546 1545 1547 1549 1548 1547 1547 1550 1551 1553 1555 1555 1555 1556 1556 1556 1560 1561 1563 1564 1567 1570 1572 1571 1550 1564 1565 1564 1565 1565 1564 1564
1525 1527 1530 1532 1533 1534 1535 1536 1538 1549 1558 1548 1545 1545 1546 1547 1548 1548 1548 1548 1550 1552 1553 1555 1555 1555 1556 1556 1556 1559 1562 1568 1572 1573 1570 1568 1568 1542 1558 1553 1558 1561 1562 1561 1561
1526 1529 1531 1532 1534 1534 1535 1538 1549 1556 1546 1550 1548 1546 1548 1551 1551 1551 1554 1557 1559 1555 1558 1557 1557 1556 1556 1557 1557 1559 1565 1561 1561 1563 1556 1569 1570 1538 1547 1550 1552 1557 1559 1558 1558
1528 1530 1531 1532 1533 1535 1536 1540 1551 1549 1548 1547 1547 1547 1550 1552 1555 1556 1558 1562 1563 1562 1566 1563 1562 1560 1558 1559 1561 1565 1565 1561 1562 1562 1563 1571 1553 1535 1547 1549 1552 1555 1556 1556 1555
1529 1531 1532 1533 1534 1535 1538 1551 1548 1547 1547 1547 1547 1550 1553 1552 1553 1557 1562 1563 1564 1564 1563 1566 1562 1561 1560 1560 1562 1566 1566 1570 1577 1586 1573 1561 1553 1545 1550 1552 1553 1553 1553 1552 1551
1530 1531 1532 1533 1534 1536 1539 1547 1547 1547 1547 1548 1550 1550 1554 1554 1554 1555 1561 1563 1565 1565 1565 1569 1563 1564 1562 1562 1564 1563 1568 1570 1574 1563 1568 1560 1563 1541 1550 1547 1549 1550 1549 1547 1547
1530 1531 1533 1533 1535 1536 1545 1548 1547 1547 1548 1549 1550 1553 1554 1554 1555 1558 1561 1565 1564 1566 1566 1568 1568 1564 1564 1565 1565 1568 1570 1576 1574 1575 1567 1568 1547 1537 1537 1538 1539 1542 1544 1544 1543
1531 1532 1532 1533 1537 1543 1547 1546 1547 1548 1548 1549 1550 1552 1554 1556 1558 1561 1561 1564 1564 1565 1566 1569 1571 1567 1563 1567 1567 1567 1567 1568 1564 1574 1589 1588 1556 1535 1536 1535 1537 1538 1539 1540 1538
1530 1532 1533 1533 1540 1547 1547 1547 1547 1548 1549 1550 1552 1553 1554 1556 1558 1562 1563 1565 1565 1565 1567 1567 1570 1565 1557 1566 1567 1567 1567 1572 1577 1582 1581 1569 1536 1534 1535 1533 1534 1536 1536 1535 1533
1530 1533 1533 1534 1537 1540 1545 1547 1548 1548 1549 1550 1552 1553 1554 1557 1559 1562 1564 1565 1565 1565 1565 1567 1573 1564 1558 1558 1567 1566 1567 1571 1568 1574 1562 1552 1523 1523 1530 1533 1533 1532 1532 1531 1529
1529 1533 1534 1538 1539 1540 1543 1547 1549 1549 1550 1551 1552 1553 1554 1558 1559 1561 1564 1565 1566 1566 1567 1568 1567 1573 1568 1568 1569 1565 1560 1565 1562 1555 1551 1524 1537 1520 1527 1529 1527 1527 1526 1524 1521
1529 1531 1535 1538 1539 1540 1543 1546 1546 1548 1549 1551 1552 1553 1555 1557 1557 1560 1562 1565 1562 1566 1567 1568 1567 1573 1567 1567 1568 1564 1554 1555 1553 1552 1552 1538 1534 1519 1520 1521 1522 1522 1521 1519 1515
1529 1531 1532 1540 1541 1543 1544 1545 1545 1546 1550 1550 1552 1554 1556 1555 1556 1556 1557 1558 1558 1561 1565 1569 1572 1576 1564 1570 1565 1554 1537 1533 1539 1539 1533 1535 1516 1518 1519 1519 1518 1518 1516 1513 1510
Wind_Speed
8 10 11 12 14 15 11 10 9 10 12 11 10 6 3 1 2 4 3 0 1 2 2 2 2 3 3 5 5 3 3 1 1 2 1 5 8 6 6 9 13 11 10 10 9
10 10 11 11 11 13 9 9 9 10 11 10 8 5 3 2 5 5 3 1 3 3 2 2 2 3 4 3 4 5 3 2 2 2 1 4 7 7 4 12 9 12 13 8 3
13 12 11 11 11 11 8 8 9 11 11 9 7 5 3 5 6 3 4 2 2 2 2 2 3 4 4 4 4 2 2 2 1 1 3 3 7 8 2 7 9 12 17 15 8
14 13 11 10 12 8 7 8 11 11 10 8 6 4 4 6 3 3 3 1 2 2 3 3 3 3 3 2 3 2 2 0 4 6 7 3 8 10 15 5 8 13 17 17 18
12 12 11 10 9 5 7 10 11 10 9 7 5 5 6 4 5 4 2 2 2 2 2 2 3 3 3 2 2 2 2 5 8 7 16 20 17 11 11 11 12 14 15 21 21
10 10 9 10 7 8 10 12 11 10 8 6 6 7 5 4 4 3 2 3 2 3 4 3 4 5 5 2 2 0 4 8 3 6 10 13 5 6 8 10 12 13 18 19 20
9 9 11 11 9 9 11 11 10 9 7 7 8 8 5 5 3 2 2 3 4 3 3 4 4 3 4 3 3 1 3 2 10 6 6 11 7 6 6 10 15 17 18 19 21
13 14 13 11 10 11 11 11 10 9 8 8 9 7 4 4 3 2 1 2 3 3 4 5 4 6 3 3 4 3 4 1 4 9 2 11 1 3 3 9 15 16 17 18 20
13 14 13 11 11 12 12 11 11 10 9 10 8 5 5 5 3 5 3 2 3 3 3 3 2 4 3 3 3 6 0 1 2 8 3 8 3 3 6 8 12 12 13 15 16
12 13 13 12 12 13 13 13 12 11 9 8 5 4 3 3 5 5 3 2 2 3 3 2 3 3 3 3 2 1 0 2 2 4 7 5 5 5 7 9 9 9 10 11 12
11 12 12 12 13 14 15 15 10 5 4 4 5 5 7 6 4 2 2 2 3 3 3 4 4 0 2 3 3 4 2 2 2 2 3 2 6 8 8 6 6 7 7 7 8
11 12 12 12 12 14 14 4 4 7 9 7 6 5 5 4 3 4 3 2 2 2 1 4 1 2 4 3 3 2 1 3 1 3 1 3 5 7 10 6 7 6 4 2 2
11 11 11 12 12 12 9 4 9 8 5 3 4 4 3 3 3 6 4 3 3 3 2 4 3 3 3 2 2 1 2 2 1 2 3 4 4 8 7 6 8 7 5 4 3
10 11 12 12 8 9 6 6 8 3 4 2 0 1 2 4 3 4 4 2 3 3 4 1 2 3 2 2 3 1 2 1 2 1 2 1 5 5 8 8 8 9 7 7 6
11 12 14 8 7 6 6 9 5 1 2 2 1 3 3 2 5 3 7 2 3 2 2 1 2 3 2 2 2 2 2 1 1 2 1 2 3 1 8 10 10 9 4 3 3
13 13 9 5 6 5 6 8 3 5 3 1 1 1 2 3 2 3 2 4 4 3 3 1 1 2 1 2 2 1 3 4 3 2 1 2 5 4 7 10 10 7 4 2 5
14 10 7 6 5 5 7 7 4 3 2 0 1 2 2 3 4 6 5 6 2 2 1 4 2 3 3 2 2 6 3 2 1 0 2 3 4 8 6 6 13 12 4 1 3
11 9 7 6 5 6 8 4 1 2 2 0 1 2 3 2 2 4 2 2 5 4 2 3 2 2 5 2 2 2 1 3 4 3 3 3 5 2 3 13 15 11 4 1 2
9 7 6 5 5 6 3 3 4 3 1 3 2 2 0 1 3 3 2 2 1 3 2 3 2 2 4 2 1 2 2 1 4 1 1 2 5 4 5 8 10 9 3 3 5
8 5 4 4 5 6 3 3 3 1 0 1 5 1 4 2 2 2 1 1 3 1 1 3 1 1 2 1 6 1 4 1 1 1 3 3 6 6 10 16 13 13 10 7 11
8 3 3 5 5 2 3 3 2 1 1 1 4 3 1 2 2 2 3 1 1 2 2 2 1 0 1 1 4 2 1 4 3 1 3 3 6 5 11 16 18 20 13 10 17
3 2 2 7 3 3 3 1 1 1 3 2 3 2 3 3 2 2 3 1 2 3 2 0 3 3 2 2 1 0 2 3 3 4 1 1 8 2 6 10 15 19 14 15 18
3 3 4 6 3 1 1 1 2 2 2 2 2 2 1 3 1 2 2 1 2 2 4 4 0 2 1 1 1 3 3 4 5 2 7 3 6 1 1 3 13 18 16 22 22
3 2 3 3 5 5 4 2 2 2 2 3 3 2 2 2 3 4 3 1 1 2 5 2 2 4 5 1 1 3 4 5 4 3 5 10 19 15 4 7 13 20 23 21 21
2 2 3 1 3 5 3 2 3 2 2 1 2 1 3 2 1 2 2 1 0 6 2 2 3 2 4 6 3 6 10 9 11 6 8 17 8 20 7 8 18 19 16 20 27
2 4 5 4 4 3 1 4 5 2 3 1 2 2 2 3 5 6 5 4 5 2 2 2 1 1 4 2 2 6 14 13 17 14 14 22 25 25 26 10 9 12 16 22 24
5 6 3 1 2 3 2 4 5 7 1 1 2 4 2 3 3 2 5 3 6 7 4 3 3 2 5 4 6 6 13 12 7 7 9 10 11 2 3 6 10 11 18 19 24
Wind_Direction
210 207 212 220 237 244 238 249 225 208 199 195 199 205 210 220 101 122 124 208 350 333 350 2 20 31 58 64 49 50 65 57 341 133 299 16 33 3 16 31 55 36 20 325 328
213 216 219 230 229 231 237 236 222 197 188 191 193 192 182 124 116 104 29 357 329 339 320 332 353 46 73 59 39 66 86 191 199 199 246 36 32 352 18 26 8 31 45 51 69
217 223 229 236 233 235 226 227 202 183 180 185 184 173 165 146 126 58 23 19 353 344 337 11 44 62 76 56 28 92 131 189 196 300 354 40 73 39 57 44 16 352 30 52 68
216 225 232 233 236 221 219 200 179 171 171 172 172 165 144 134 117 13 32 13 34 18 34 55 68 78 79 74 50 87 82 320 315 336 352 65 98 66 54 82 66 68 67 68 70
216 223 226 232 213 191 186 169 164 161 161 162 157 149 134 116 103 116 61 45 69 74 65 94 79 92 102 96 66 76 333 316 325 29 80 111 81 96 67 94 95 86 79 72 73
212 214 217 198 145 162 162 155 154 152 150 149 142 139 133 107 102 104 76 54 85 95 79 88 96 94 105 79 79 339 292 306 34 63 115 111 60 168 56 101 91 84 76 74 74
183 182 173 123 134 155 150 145 145 139 136 134 132 132 106 123 116 115 88 65 68 79 91 79 75 107 113 111 28 349 357 72 28 353 102 135 41 35 110 103 92 85 83 81 76
153 156 114 121 148 146 139 136 133 127 126 128 131 132 96 128 92 73 80 67 53 62 73 63 66 104 84 100 36 43 57 95 17 16 357 171 163 130 125 118 98 94 90 84 77
139 111 121 141 148 137 132 130 123 121 123 130 138 130 112 112 112 76 83 87 111 89 79 58 89 82 89 85 36 15 206 318 352 30 298 24 142 177 152 132 111 105 97 89 84
118 129 142 147 141 137 134 128 121 122 119 119 134 124 129 124 110 65 59 63 115 114 116 88 61 75 49 73 237 199 335 284 267 349 43 52 122 145 143 138 129 119 104 94 83
136 144 148 148 145 142 136 127 121 110 89 95 115 105 125 127 106 51 20 104 120 103 68 28 64 4 230 159 129 127 149 261 282 38 85 74 151 173 167 156 156 139 117 97 80
147 149 149 147 144 144 143 131 140 137 106 90 96 106 129 146 112 46 36 124 79 93 65 30 99 220 123 129 125 130 176 268 276 43 100 184 210 191 186 187 185 170 160 137 91
147 147 144 141 141 150 153 128 135 123 93 81 95 99 117 128 83 22 37 83 90 91 68 143 168 138 140 101 97 269 195 205 252 54 68 147 252 199 199 190 202 214 222 237 269
143 143 140 137 136 154 162 152 148 114 79 298 96 116 123 140 63 52 41 82 45 143 147 153 332 145 110 117 127 311 163 87 256 4 278 282 294 217 193 196 216 221 239 254 265
142 143 143 141 144 152 165 161 149 71 72 163 131 142 130 147 138 1 29 92 117 135 121 170 85 82 97 150 150 202 31 266 182 186 11 187 246 211 172 210 213 212 220 204 235
139 139 141 131 142 145 156 167 144 47 251 162 114 154 96 45 55 340 64 76 88 94 46 73 9 57 105 89 71 5 110 55 62 108 234 172 207 248 187 208 186 184 170 209 299
137 139 138 139 140 142 148 144 50 138 24 141 140 73 78 22 36 33 31 20 50 101 28 16 7 344 41 122 32 52 63 306 306 250 255 183 196 268 208 193 166 163 160 25 332
134 136 136 136 141 147 150 57 190 149 193 232 91 81 112 5 36 23 75 71 41 57 95 154 258 1 352 75 155 49 147 147 272 256 285 261 241 284 238 158 151 152 157 272 300
148 139 142 151 156 162 164 86 214 195 162 163 81 127 12 164 125 88 56 117 46 38 153 149 253 331 44 356 83 144 69 77 111 101 303 294 285 256 146 181 185 184 209 327 299
150 148 139 160 163 159 86 213 171 190 171 89 185 132 194 231 149 111 153 169 137 54 200 186 321 46 292 77 48 129 132 147 8 356 291 282 281 251 207 215 214 218 229 328 333
146 134 113 143 143 134 141 197 166 96 129 109 192 143 168 186 159 178 164 152 195 111 105 127 119 266 32 199 176 98 142 59 111 128 224 294 254 214 222 213 212 213 227 302 330
183 78 155 160 69 53 125 97 97 77 73 49 85 86 155 157 122 156 201 109 144 143 119 282 133 242 200 146 331 344 196 155 148 199 109 113 266 188 260 232 215 212 232 306 320
161 111 56 172 138 105 205 92 103 112 51 72 98 49 62 132 154 108 132 35 122 117 167 172 2 331 277 78 26 219 190 106 96 93 200 180 262 44 338 201 216 217 253 309 310
164 61 69 80 80 125 139 150 113 71 96 96 127 118 116 116 34 172 156 197 138 98 105 134 159 214 207 181 108 232 193 182 153 170 181 225 268 276 230 230 235 246 280 297 306
132 115 133 141 35 108 96 138 123 161 71 111 47 202 153 138 89 175 123 100 312 167 93 123 220 214 256 244 249 250 240 190 206 198 222 270 250 266 277 267 269 281 290 306 320
118 137 104 90 116 109 8 201 160 183 140 225 178 160 160 173 195 201 155 203 196 166 141 355 214 61 288 112 165 261 266 229 227 235 255 262 278 284 283 272 255 283 302 315 323
87 107 117 67 87 98 214 174 202 141 166 92 158 125 185 226 211 204 190 137 178 157 157 132 133 89 262 350 297 265 236 210 184 202 215 225 244 183 197 222 272 297 314 320 322